Location: La Silve
(44.2414°N, 5.8889°E)
Time: 18:26:42
(UTC+00:00)

Tiangong - Pass Details

Date: 26 June 2021
Orbit: 373 x 386 km, 41.5° (Epoch: 01 August)

Event Time Altitude Azimuth Distance (km) Brightness Sun altitude
Exits shadow 03:04:43 - 264° (W) 1,687 3.8 -7.7°
Reaches altitude 10° 03:05:28 10° 261° (W) 1,387 3.4 -7.6°
Maximum altitude 03:08:29 47° 186° (S) 510 1.4 -7.2°
Drops below altitude 10° 03:11:32 10° 111° (ESE) 1,395 4.3 -6.8°
Sets 03:13:39 0° 105° (ESE) 2,250 5.4 -6.5°
